Location: Paddlesworth
(51.1000°N, 1.1333°E)
Time: 23:14:16
(UTC+00:00)

ATLAS 2AS CENTAUR R/B - Pass Details

Date: 11 May 2021
Orbit: 949 x 1263 km, 63.7° (Epoch: 07 May)

Event Time Altitude Azimuth Distance (km) Brightness Sun altitude
Rises 21:21:15 0° 314° (NW) 4,144 7.6 -13.3°
Reaches altitude 10° 21:24:07 10° 316° (NW) 3,141 6.6 -13.6°
Maximum altitude 21:31:39 74° 42° (NE) 1,181 2.9 -14.3°
Enters shadow 21:37:04 18° 126° (SE) 2,384 4.0 -14.7°
